Location: São Paulo
(23.5507°S, 46.6334°W)
Time: 09:51:43
(UTC-03:00)

Explorer 7 - Pass Details

Date: 21 February 2026
Orbit: 430 x 541 km, 50.2° (Epoch: 11 March)

Event Time Altitude Azimuth Distance (km) Brightness Sun altitude
Rises 00:10:12 0° 320° (NW) 2,690 - -55.8°
Reaches altitude 10° 00:12:26 10° 320° (NW) 1,806 - -55.8°
Maximum altitude 00:16:34 86° 50° (NE) 552 - -55.9°
Drops below altitude 10° 00:20:43 10° 137° (SE) 1,808 - -55.9°
Sets 00:22:56 0° 137° (SE) 2,693 - -55.9°
